Meteo pe oră la Bolshoe Fursovo

Astăzi, 8 Mai, Sâmbătă

Timp Temperatura Precipitaţii Vânt Presiune Umiditate
00:00 +7°C° 0 mm 3 m/s 745 mmHg 67%
01:00 +6°C° 0 mm 4 m/s 745 mmHg 68%
02:00 +6°C° 0 mm 4 m/s 745 mmHg 68%
03:00 +6°C° 0 mm 5 m/s 744 mmHg 69%
04:00 +7°C° 0 mm 5 m/s 744 mmHg 71%
05:00 +7°C° 0 mm 6 m/s 744 mmHg 74%
06:00 +7°C° 0 mm 6 m/s 743 mmHg 77%
07:00 +7°C° 0.8 mm 6 m/s 743 mmHg 81%
08:00 +6°C° 0.8 mm 7 m/s 742 mmHg 85%
09:00 +6°C° 0.8 mm 8 m/s 742 mmHg 90%
10:00 +6°C° 1.3 mm 8 m/s 741 mmHg 89%
11:00 +6°C° 1.3 mm 8 m/s 741 mmHg 89%
12:00 +6°C° 1.3 mm 8 m/s 740 mmHg 89%
13:00 +7°C° 1.9 mm 8 m/s 740 mmHg 90%
14:00 +7°C° 1.9 mm 8 m/s 739 mmHg 90%
15:00 +9°C° 1.9 mm 7 m/s 739 mmHg 91%
16:00 +9°C° 2.2 mm 7 m/s 738 mmHg 92%
17:00 +9°C° 2.2 mm 6 m/s 738 mmHg 93%
18:00 +9°C° 2.2 mm 5 m/s 737 mmHg 94%
19:00 +9°C° 0 mm 5 m/s 737 mmHg 93%
20:00 +9°C° 0 mm 5 m/s 737 mmHg 93%
21:00 +9°C° 0 mm 5 m/s 737 mmHg 93%
22:00 +8°C° 0 mm 5 m/s 737 mmHg 93%
23:00 +8°C° 0 mm 5 m/s 737 mmHg 94%

Mâine, 9 Mai, Duminică

Timp Temperatura Precipitaţii Vânt Presiune Umiditate
00:00 +7°C° 0 mm 4 m/s 737 mmHg 94%
01:00 +7°C° 0 mm 4 m/s 738 mmHg 94%
02:00 +7°C° 0 mm 4 m/s 738 mmHg 94%
03:00 +6°C° 0 mm 4 m/s 738 mmHg 95%
04:00 +5°C° 0.4 mm 5 m/s 739 mmHg 95%
05:00 +3°C° 0.4 mm 6 m/s 740 mmHg 96%
06:00 +2°C° 0.4 mm 7 m/s 741 mmHg 96%
07:00 +3°C° 0.4 mm 7 m/s 742 mmHg 92%
08:00 +3°C° 0.4 mm 7 m/s 743 mmHg 89%
09:00 +3°C° 0.4 mm 7 m/s 743 mmHg 85%
10:00 +4°C° 0 mm 7 m/s 744 mmHg 81%
11:00 +5°C° 0 mm 7 m/s 745 mmHg 78%
12:00 +5°C° 0 mm 7 m/s 746 mmHg 74%
13:00 +6°C° 0 mm 7 m/s 746 mmHg 71%
14:00 +6°C° 0 mm 7 m/s 747 mmHg 67%
15:00 +8°C° 0 mm 7 m/s 747 mmHg 64%
16:00 +8°C° 0 mm 6 m/s 748 mmHg 63%
17:00 +9°C° 0 mm 5 m/s 748 mmHg 63%
18:00 +10°C° 0 mm 4 m/s 749 mmHg 62%
19:00 +7°C° 0 mm 4 m/s 750 mmHg 67%
20:00 +7°C° 0 mm 3 m/s 750 mmHg 71%
21:00 +5°C° 0 mm 3 m/s 751 mmHg 75%
22:00 +4°C° 0 mm 3 m/s 752 mmHg 77%
23:00 +3°C° 0 mm 3 m/s 752 mmHg 79%

Poimâine, 10 Mai, Luni

Timp Temperatura Precipitaţii Vânt Presiune Umiditate
00:00 +3°C° 0 mm 3 m/s 752 mmHg 80%
01:00 +3°C° 0 mm 3 m/s 753 mmHg 80%
02:00 +2°C° 0 mm 3 m/s 754 mmHg 80%
03:00 +2°C° 0 mm 3 m/s 754 mmHg 80%
04:00 +2°C° 0 mm 3 m/s 755 mmHg 80%
05:00 +2°C° 0 mm 3 m/s 755 mmHg 80%
06:00 +4°C° 0 mm 2 m/s 756 mmHg 79%
07:00 +5°C° 0 mm 3 m/s 756 mmHg 72%
08:00 +8°C° 0 mm 3 m/s 756 mmHg 66%
09:00 +10°C° 0 mm 4 m/s 757 mmHg 59%
10:00 +11°C° 0 mm 4 m/s 757 mmHg 55%
11:00 +12°C° 0 mm 4 m/s 757 mmHg 51%
12:00 +13°C° 0 mm 4 m/s 757 mmHg 47%
13:00 +13°C° 0 mm 4 m/s 757 mmHg 46%
14:00 +14°C° 0 mm 4 m/s 757 mmHg 46%
15:00 +14°C° 0 mm 4 m/s 756 mmHg 45%
16:00 +14°C° 0 mm 4 m/s 756 mmHg 50%
17:00 +14°C° 0 mm 4 m/s 756 mmHg 54%
18:00 +13°C° 0 mm 3 m/s 756 mmHg 59%
19:00 +12°C° 0 mm 3 m/s 757 mmHg 63%
20:00 +10°C° 0 mm 3 m/s 757 mmHg 66%
21:00 +8°C° 0 mm 3 m/s 757 mmHg 70%
22:00 +8°C° 0 mm 3 m/s 757 mmHg 70%
23:00 +7°C° 0 mm 3 m/s 757 mmHg 71%

11 Mai, Marţi

Timp Temperatura Precipitaţii Vânt Presiune Umiditate
00:00 +6°C° 0 mm 2 m/s 757 mmHg 71%
01:00 +5°C° 0 mm 3 m/s 757 mmHg 73%
02:00 +5°C° 0 mm 3 m/s 757 mmHg 74%
03:00 +4°C° 0 mm 3 m/s 757 mmHg 75%
04:00 +5°C° 0 mm 3 m/s 758 mmHg 76%
05:00 +5°C° 0 mm 3 m/s 758 mmHg 77%
06:00 +5°C° 0 mm 3 m/s 758 mmHg 78%
07:00 +7°C° 0 mm 4 m/s 758 mmHg 72%
08:00 +10°C° 0 mm 4 m/s 758 mmHg 66%
09:00 +12°C° 0 mm 5 m/s 758 mmHg 60%
10:00 +13°C° 0 mm 5 m/s 758 mmHg 57%
11:00 +14°C° 0 mm 5 m/s 758 mmHg 54%
12:00 +15°C° 0 mm 6 m/s 757 mmHg 51%
13:00 +16°C° 0 mm 5 m/s 757 mmHg 50%
14:00 +17°C° 0 mm 5 m/s 757 mmHg 49%
15:00 +17°C° 0 mm 5 m/s 756 mmHg 48%
16:00 +17°C° 0 mm 5 m/s 756 mmHg 53%
17:00 +18°C° 0 mm 4 m/s 756 mmHg 58%
18:00 +17°C° 0 mm 3 m/s 756 mmHg 63%
19:00 +16°C° 0 mm 3 m/s 756 mmHg 68%
20:00 +13°C° 0 mm 3 m/s 756 mmHg 73%
21:00 +11°C° 0 mm 3 m/s 756 mmHg 77%
22:00 +10°C° 0 mm 3 m/s 756 mmHg 80%
23:00 +10°C° 0 mm 3 m/s 756 mmHg 83%

12 Mai, Miercuri

Timp Temperatura Precipitaţii Vânt Presiune Umiditate
00:00 +9°C° 0 mm 3 m/s 756 mmHg 86%
01:00 +9°C° 0 mm 3 m/s 756 mmHg 87%
02:00 +8°C° 0 mm 3 m/s 756 mmHg 88%
03:00 +8°C° 0 mm 3 m/s 755 mmHg 89%
04:00 +8°C° 0 mm 3 m/s 755 mmHg 87%
05:00 +7°C° 0 mm 4 m/s 755 mmHg 86%
06:00 +8°C° 0 mm 4 m/s 755 mmHg 84%
07:00 +9°C° 0 mm 5 m/s 755 mmHg 78%
08:00 +11°C° 0 mm 6 m/s 755 mmHg 72%
09:00 +14°C° 0 mm 7 m/s 755 mmHg 66%
10:00 +15°C° 0 mm 6 m/s 755 mmHg 64%
11:00 +16°C° 0 mm 6 m/s 755 mmHg 62%
12:00 +19°C° 0 mm 6 m/s 754 mmHg 61%
13:00 +19°C° 0 mm 6 m/s 754 mmHg 62%
14:00 +19°C° 0 mm 6 m/s 754 mmHg 63%
15:00 +20°C° 0 mm 6 m/s 754 mmHg 65%
16:00 +19°C° 0 mm 5 m/s 754 mmHg 68%
17:00 +17°C° 0 mm 5 m/s 753 mmHg 71%
18:00 +18°C° 0 mm 4 m/s 753 mmHg 74%
19:00 +17°C° 0 mm 4 m/s 753 mmHg 77%
20:00 +15°C° 0 mm 4 m/s 753 mmHg 80%
21:00 +14°C° 0 mm 4 m/s 753 mmHg 83%
22:00 +14°C° 0 mm 4 m/s 753 mmHg 83%
23:00 +13°C° 0 mm 4 m/s 753 mmHg 84%

13 Mai, Joi

Timp Temperatura Precipitaţii Vânt Presiune Umiditate
00:00 +13°C° 0 mm 4 m/s 753 mmHg 85%
01:00 +12°C° 0 mm 4 m/s 753 mmHg 86%
02:00 +11°C° 0 mm 4 m/s 753 mmHg 87%
03:00 +11°C° 0 mm 4 m/s 752 mmHg 88%
04:00 +11°C° 0 mm 4 m/s 752 mmHg 86%
05:00 +11°C° 0 mm 4 m/s 752 mmHg 85%
06:00 +12°C° 0 mm 5 m/s 752 mmHg 83%
07:00 +13°C° 0 mm 5 m/s 752 mmHg 79%
08:00 +14°C° 0 mm 5 m/s 752 mmHg 75%
09:00 +15°C° 0 mm 6 m/s 752 mmHg 71%
10:00 +16°C° 0 mm 6 m/s 752 mmHg 69%
11:00 +17°C° 0 mm 6 m/s 751 mmHg 67%
12:00 +18°C° 0 mm 7 m/s 751 mmHg 66%
13:00 +20°C° 0 mm 6 m/s 751 mmHg 65%
14:00 +21°C° 0 mm 6 m/s 751 mmHg 65%
15:00 +22°C° 0 mm 6 m/s 750 mmHg 64%
16:00 +21°C° 0.2 mm 6 m/s 750 mmHg 66%
17:00 +21°C° 0.2 mm 6 m/s 750 mmHg 69%
18:00 +20°C° 0.2 mm 6 m/s 750 mmHg 71%
19:00 +19°C° 0.2 mm 5 m/s 750 mmHg 77%
20:00 +18°C° 0.2 mm 4 m/s 750 mmHg 83%
21:00 +16°C° 0.2 mm 3 m/s 750 mmHg 89%
22:00 +16°C° 0 mm 3 m/s 750 mmHg 91%
23:00 +14°C° 0 mm 3 m/s 750 mmHg 92%
Arată mai mult

Formular de consimțământ

Meteoprog și furnizorii noștri de servicii pot stoca și accesa date personale, precum cookies, identificatori de dispozitiv sau alte tehnologii similare pe dispozitivul dumneavoastră și procesa astfel de date pentru a personaliza conținutul și reclamele, dar și pentru a oferi caracteristici de social media și pentru a analiza traficul.

  • Stocarea și/sau accesarea informațiilor pe dispozitivul dumneavoastră

    Cookies, identificatori de dispozitiv sau alte informații pot fi stocate sau accesate pe dispozitiv în scopurile indicate mai sus.

  • Reclame și conținut personalizat, evaluarea reclamelor și a conținutului, informații despre audiențe și dezvoltarea produselor

    Reclamele și conținutul pot fi personalizate pe baza unui profil. Pot fi adăugate date suplimentare pentru a personaliza mai bine reclamele și conținutul. Performanța reclamelor și conținutului poate fi măsurată. Pot fi obținute informații despre utilizatorii care au văzut reclamele și conținutul. Aceste date pot fi utilizate pentru a dezvolta sau îmbunătăți experiența utilizatorilor, sistemele și software-ul.

Dând clic pe ‘Sunt de acord’, permiteți utilizarea cookie-urilor menționate, a identificatorilor de dispozitiv, balizelor web sau altor tehnologii similare. Setările pot fi modificate din browser-ul dispozitivului dumneavoastră.

În anumite scopuri, interesele legitime pot prima asupra consimțământului. Puteți citi mai multe informații în acest sens în Politica privind Confidențialitatea Datelor și Cookie.